TimeEST,TemperatureF,Dew PointF,Humidity,Sea Level PressureIn,VisibilityMPH,Wind Direction,Wind SpeedMPH,Gust SpeedMPH,PrecipitationIn,Events,Conditions,WindDirDegrees,DateUTC
12:53 AM,24.1,14.0,65,30.54,10.0,Calm,Calm,-,N/A,,Clear,0,2014-01-08 05:53:00
1:53 AM,23.0,14.0,68,30.53,10.0,Calm,Calm,-,N/A,,Clear,0,2014-01-08 06:53:00
2:53 AM,28.0,14.0,56,30.53,10.0,Calm,Calm,-,N/A,,Clear,0,2014-01-08 07:53:00
3:53 AM,28.0,14.0,56,30.54,10.0,Calm,Calm,-,N/A,,Clear,0,2014-01-08 08:53:00
4:53 AM,25.0,14.0,63,30.53,10.0,Calm,Calm,-,N/A,,Clear,0,2014-01-08 09:53:00
5:53 AM,21.9,14.0,72,30.51,10.0,Calm,Calm,-,N/A,,Clear,0,2014-01-08 10:53:00
6:53 AM,32.0,14.0,48,30.53,10.0,North,3.5,-,N/A,,Clear,350,2014-01-08 11:53:00
7:53 AM,21.0,14.0,74,30.56,10.0,NNE,3.5,-,N/A,,Clear,20,2014-01-08 12:53:00
8:53 AM,39.9,15.1,36,30.58,10.0,ENE,5.8,-,N/A,,Clear,60,2014-01-08 13:53:00
9:53 AM,43.0,10.9,27,30.59,10.0,NE,11.5,-,N/A,,Clear,50,2014-01-08 14:53:00
10:53 AM,48.9,10.0,21,30.59,10.0,ENE,9.2,-,N/A,,Clear,60,2014-01-08 15:53:00
11:53 AM,54.0,10.0,17,30.56,10.0,ENE,9.2,-,N/A,,Clear,60,2014-01-08 16:53:00
12:53 PM,39.9,9.0,28,30.51,10.0,East,5.8,-,N/A,,Clear,90,2014-01-08 17:53:00
1:53 PM,44.1,9.0,24,30.48,10.0,ENE,6.9,-,N/A,,Clear,60,2014-01-08 18:53:00
2:53 PM,46.0,9.0,22,30.46,10.0,North,6.9,-,N/A,,Clear,350,2014-01-08 19:53:00
3:53 PM,48.0,9.0,21,30.46,10.0,NE,9.2,-,N/A,,Clear,50,2014-01-08 20:53:00
4:53 PM,46.0,10.0,23,30.46,10.0,East,10.4,-,N/A,,Clear,80,2014-01-08 21:53:00
5:53 PM,43.0,12.0,28,30.46,10.0,NE,4.6,-,N/A,,Scattered Clouds,50,2014-01-08 22:53:00
6:53 PM,42.1,17.1,37,30.47,10.0,Calm,Calm,-,N/A,,Overcast,0,2014-01-08 23:53:00
7:53 PM,41.0,18.0,40,30.48,10.0,ENE,3.5,-,N/A,,Overcast,60,2014-01-09 00:53:00
8:53 PM,43.0,16.0,34,30.49,10.0,ENE,4.6,-,N/A,,Overcast,60,2014-01-09 01:53:00
9:37 PM,42.8,15.8,34,30.49,10.0,NE,5.8,-,N/A,,Overcast,50,2014-01-09 02:37:00
9:53 PM,43.0,15.1,32,30.49,10.0,NE,4.6,-,N/A,,Overcast,40,2014-01-09 02:53:00
10:48 PM,42.8,17.6,36,30.47,10.0,ENE,5.8,-,N/A,,Overcast,70,2014-01-09 03:48:00
10:53 PM,42.1,17.1,37,30.48,10.0,ENE,4.6,-,N/A,,Overcast,60,2014-01-09 03:53:00
11:53 PM,43.0,18.0,37,30.46,10.0,NE,4.6,-,N/A,,Overcast,50,2014-01-09 04:53:00